Notices

What's New in latest Release from April 7th, 2021:

- Updated Glossary, including Speed of Maximum Gust, and Total Hourly Precipitation

- Updated national and regional climate services offices contacts and prices information

- Addition of station inventory lists for 1981-2010, 1971-2000, and 1961-1990 Normals.

If you haven't already, please take our survey and provide feedback about our website: https://eccc.sondage-survey.ca/f/LanguageSelection.aspx?s=442ca660-fcf1-47c0-95a9-59707d6fd709

Hourly Data Report for March 14, 2021

OTTAWA INTL A
ONTARIO
Current Station Operator: NAVCAN

45°19'00.000" N
75°40'00.000" W
114.90 m
6106001
71628
YOW

Download Data

Hourly Data (March 2021)
Hourly Data Report for March 14, 2021
TIME
LST
Temp Definition
°C
Dew Point Definition
°C
Rel Hum Definition
%
Precip. Amount Definition
mm

Wind Dir Definition
10's deg

Wind Spd Definition
km/h
Visibility Definition
km
Stn Press Definition
kPa
Hmdx Definition


Wind Chill Definition


Weather Definition


00:00 -1.4 -7.2 65   25 14 24.1 100.07   -6 LegendNANA
01:00 -1.2 -7.2 64   26 14 24.1 100.06   -6 Mostly Cloudy
02:00 -1.5 -6.7 68   27 14 24.1 100.06   -6 LegendNANA
03:00 -3.1 -7.0 75   25 5 24.1 100.01   -5 LegendNANA
04:00 -2.4 -6.3 75   29 15 24.1 100.01   -7 Mainly Clear
05:00 -2.4 -9.4 59   32 27 24.1 100.06   -9 LegendNANA
06:00 -3.0 -9.1 63   32 30 24.1 100.10   -10 LegendNANA
07:00 -3.6 -8.6 69   32 42 24.1 100.16   -12 Mostly Cloudy
08:00 -3.0 -7.8 70   32 23 24.1 100.26   -9 LegendNANA
09:00 -4.2 -12.2 54   33 39 24.1 100.43   -13 LegendNANA
10:00 -4.5 -14.2 47   32 39 24.1 100.52   -13 Mostly Cloudy
11:00 -4.5 -15.1 44   31 44 24.1 100.61   -14 LegendNANA
12:00 -5.0 -16.5 41   34 34 24.1 100.69   -13 LegendNANA
13:00 -5.2 -16.8 40   34 37 24.1 100.73   -14 Mainly Clear
14:00 -4.0 -15.2 42   33 36 24.1 100.75   -12 LegendNANA
15:00 -4.4 -16.1 40   33 34 24.1 100.77   -13 LegendNANA
16:00 -4.2 -16.2 39   31 38 24.1 100.81   -13 Mainly Clear
17:00 -5.2 -16.6 41   32 39 24.1 100.88   -14 LegendNANA
18:00 -6.5 -17.8 41   33 35 24.1 101.00   -16 LegendNANA
19:00 -7.3 -17.9 43   32 34 24.1 101.13   -16 Mainly Clear
20:00 -8.4 -19.0 43   34 33 24.1 101.26   -18 LegendNANA
21:00 -9.5 -19.2 46   33 25 24.1 101.34   -18 LegendNANA
22:00 -10.0 -19.2 48   33 26 24.1 101.41   -19 Clear
23:00 -10.8 -19.5 49   33 29 24.1 101.45   -20 LegendNANA

Notes on Data Quality.

Legend

  • E = Estimated
  • M = Missing
  • NA = Not Available*
  • [empty] = Indicates an unobserved value
Date modified: